Tracking 30306 objects as of 22-Apr-2025
HD Live streaming from Space Station
objects crossing your sky now

FORMOSAT 3E

Track FORMOSAT 3E now!
10-day predictions
FORMOSAT 3E is classified as:


NORAD ID: 29051
Int'l Code: 2006-011E
Perigee: 749.3 km
Apogee: 841.6 km
Inclination: 72.0 °
Period: 100.6 minutes
Semi major axis: 7166 km
RCS: 0.58 m2 (medium)
Launch date: April 15, 2006
Source: Taiwan (Republic of China) (ROC)
Launch site: AIR FORCE WESTERN TEST RANGE (AFWTR)
Your satellite tracking list
Your tracking list is empty




NASA's NSSDC Master Catalog

Two Line Element Set (TLE):
1 29051U 06011E   25111.87752308  .00001131  00000-0  43517-3 0  9994
2 29051  72.0023  83.8182 0064419 102.5180 258.3174 14.31027665994988
Source of the keplerian elements: AFSPC